CZ-6A DEB, 55864

Orbit data source: Space-Track

CZ-6A DEB, 55864 is space debris in SSO originally from a launch on Fri, 11 Nov 2022 UTC launched from the Taiyaun Space Center, China (TSC). Debris objects in space refer to the collection of defunct objects orbiting the Earth. Examples of debris include non-operational satellites, rocket bodies, and fragments generated from explosions, collisions, or faulty payload assembly.

Loading next visibility...
Identifier
55864, 2022-151ZL
Orbit
SSO
Country
Flag of CNCN / PRC
Related business
Manufacturer
SAST
Mission
Spacecraft
Bus & Motor
Unknown
Mass
Unknown
Launch date (UTC)
2022-11-11 (4 years ago)
Launch vehicle
Unknown
Launch site
Taiyaun Space Center, China (TSC)
Object type
Payload
Rocket body
Debris
Shape & HBR
Unknown shape, 1.1 m
Radar Cross Section
Medium (>0.1 m² and <1 m²)

Expand to show TLE details & history
Last TLE update: 2 days ago

TLE from 2 days ago
0 CZ-6A DEB
1 55864U 22151ZL  26171.02843866  .00000737  00000-0  38249-3 0  9999
2 55864  98.8236 185.7774 0025043 311.2921  48.6097 14.17734728171623
Epoch: 2026-06-20T00:40Z
TLE epoch observation values (Epoch: 2026-06-20T00:40:57.100Z)
Latitude
-0.00007°
Longitude
-92.70945°
Altitude
824.015 km
Speed
7.447 km/s
True Right ascension
12h 23m 06s
True Declination
0° 00' 00"
Sunlit
Object was in daylight at epoch
Visualization orbit readout
Latitude
Unknown
Longitude
Unknown
Altitude
Unknown
Speed
Unknown
Apparent Right ascension
Unknown
Apparent Declination
Unknown
Sunlit
N/A
Visualization observer readout
Local Sidereal Time
22:00:17
Azimuth
Unknown
Elevation
Unknown
Doppler factor
Unknown
Orbital elements
Apogee altitude
848.243 km
Perigee altitude
812.139 km
Semi-major axis
7,208.328 km
Eccentricity
0.0025
Inclination
98.8236°
RAAN
185.7774°
Arg. of periapsis
311.2921°
True anomaly
48.82544°
Mean anomaly
48.6097°
Eccentric anomaly
48.71752°
Mean motion
3.54643 °/min
Orbital period
101.51 mins
BSTAR
0.00038249
Loading maneuver chart data...
Computing Atmospheric mass density...
Loading historical data...
Loading historical data...
Loading historical data...
Loading historical data...
Loading historical data...
Loading historical data...
Loading historical data...

Documentation

Showing up to 5 results
|